| time (UTC) | temp F | wind direction | speed MPH | gust MPH | rain 1hr in | rain 24hr in | rain mn in | humidity % | barometer mb |
| 20260510170149 | 71 | 240 | 3.0 | 8.0 | 0.00 | 0.00 | 0.00 | 60 | 1012.6 |
| 20260510165649 | 71 | 184 | 4.0 | 10.0 | 0.00 | 0.00 | 0.00 | 60 | 1012.6 |
| 20260510165142 | 71 | 223 | 4.0 | 10.0 | 0.00 | 0.00 | 0.00 | 60 | 1012.6 |
| 20260510164643 | 71 | 241 | 3.0 | 9.0 | 0.00 | 0.00 | 0.00 | 61 | 1012.5 |
| 20260510164144 | 70 | 182 | 3.0 | 7.0 | 0.00 | 0.00 | 0.00 | 60 | 1012.3 |
| 20260510163653 | 70 | 186 | 4.0 | 4.0 | 0.00 | 0.00 | 0.00 | 61 | 1012.5 |
| 20260510162153 | 68 | 174 | 3.0 | 9.0 | 0.00 | 0.00 | 0.00 | 63 | 1012.1 |
| 20260510161659 | 67 | 209 | 2.0 | 6.0 | 0.00 | 0.00 | 0.00 | 64 | 1012.2 |
| 20260510161654 | 68 | 209 | 3.0 | 9.0 | 0.00 | 0.00 | 0.00 | 64 | 1012.1 |
| 20260510161429 | 67 | 199 | 2.0 | 5.0 | 0.00 | 0.00 | 0.00 | 65 | 1012.2 |
| 20260510160656 | 67 | 180 | 2.0 | 5.0 | 0.00 | 0.00 | 0.00 | 64 | 1012.3 |
| 20260510160431 | 66 | 229 | 3.0 | 7.0 | 0.00 | 0.00 | 0.00 | 66 | 1012.1 |
| 20260510155652 | 66 | 203 | 3.0 | 6.0 | 0.00 | 0.00 | 0.00 | 65 | 1012.1 |
| 20260510155154 | 66 | 167 | 3.0 | 7.0 | 0.00 | 0.00 | 0.00 | 66 | 1012.1 |
| 20260510154153 | 66 | 206 | 3.0 | 7.0 | 0.00 | 0.00 | 0.00 | 66 | 1012.1 |
| 20260510153650 | 65 | 185 | 3.0 | 7.0 | 0.00 | 0.00 | 0.00 | 68 | 1012.2 |
| 20260510153159 | 65 | 145 | 3.0 | 7.0 | 0.00 | 0.00 | 0.00 | 68 | 1012.1 |
| 20260510152649 | 65 | 228 | 3.0 | 7.0 | 0.00 | 0.00 | 0.00 | 69 | 1012.1 |
| 20260510152144 | 64 | 250 | 3.0 | 7.0 | 0.00 | 0.00 | 0.00 | 69 | 1012.1 |
| 20260510151645 | 64 | 202 | 2.0 | 5.0 | 0.00 | 0.00 | 0.00 | 70 | 1012.0 |
| 20260510151141 | 63 | 217 | 3.0 | 1.0 | 0.00 | 0.00 | 0.00 | 71 | 1012.0 |
| 20260510145754 | 62 | 186 | 4.0 | 7.0 | 0.00 | 0.00 | 0.00 | 72 | 1011.6 |
| 20260510145254 | 62 | 211 | 2.0 | 7.0 | 0.00 | 0.00 | 0.00 | 72 | 1011.4 |
| 20260510144758 | 61 | 184 | 1.0 | 5.0 | 0.00 | 0.00 | 0.00 | 74 | 1011.6 |
| 20260510144753 | 62 | 213 | 1.0 | 5.0 | 0.00 | 0.00 | 0.00 | 74 | 1011.5 |
| 20260510143753 | 61 | 205 | 1.0 | 1.0 | 0.00 | 0.00 | 0.00 | 75 | 1011.6 |
| 20260510142916 | 59 | 200 | 2.0 | 7.0 | 0.00 | 0.00 | 0.00 | 77 | 1011.4 |
| 20260510141912 | 58 | 194 | 2.0 | 6.0 | 0.00 | 0.00 | 0.00 | 80 | 1011.3 |
| 20260510141908 | 59 | 186 | 2.0 | 6.0 | 0.00 | 0.00 | 0.00 | 79 | 1011.4 |
| 20260510140903 | 58 | 205 | 3.0 | 7.0 | 0.00 | 0.00 | 0.00 | 80 | 1011.2 |
| 20260510140404 | 58 | 182 | 3.0 | 7.0 | 0.00 | 0.00 | 0.00 | 81 | 1011.0 |
| 20260510135905 | 57 | 205 | 4.0 | 10.0 | 0.00 | 0.00 | 0.00 | 81 | 1010.9 |
| 20260510135403 | 57 | 168 | 4.0 | 10.0 | 0.00 | 0.00 | 0.00 | 81 | 1010.8 |
| 20260510134910 | 57 | 223 | 3.0 | 6.0 | 0.00 | 0.00 | 0.00 | 82 | 1010.8 |
| 20260510133619 | 56 | 205 | 4.0 | 10.0 | 0.00 | 0.00 | 0.00 | 82 | 1010.7 |
| 20260510133114 | 56 | 234 | 4.0 | 10.0 | 0.00 | 0.00 | 0.00 | 82 | 1010.6 |
| 20260510132615 | 57 | 214 | 3.0 | 3.0 | 0.00 | 0.00 | 0.00 | 83 | 1010.6 |
| 20260510132320 | 57 | 173 | 2.0 | 6.0 | 0.00 | 0.00 | 0.00 | 83 | 1010.5 |
| 20260510130816 | 57 | 213 | 2.0 | 6.0 | 0.00 | 0.00 | 0.00 | 83 | 1010.4 |
| 20260510130321 | 57 | 184 | 2.0 | 5.0 | 0.00 | 0.00 | 0.00 | 82 | 1010.4 |
| 20260510130317 | 57 | 215 | 2.0 | 5.0 | 0.00 | 0.00 | 0.00 | 83 | 1010.4 |
| 20260510130051 | 57 | 207 | 1.0 | 5.0 | 0.00 | 0.00 | 0.00 | 82 | 1010.3 |
| 20260510124818 | 57 | 178 | 2.0 | 1.0 | 0.00 | 0.00 | 0.00 | 82 | 1010.3 |
| 20260510123605 | 57 | 189 | 2.0 | 6.0 | 0.00 | 0.00 | 0.00 | 82 | 1010.4 |
| 20260510123104 | 57 | 209 | 3.0 | 7.0 | 0.00 | 0.00 | 0.00 | 82 | 1010.4 |
| 20260510122605 | 57 | 203 | 3.0 | 7.0 | 0.00 | 0.00 | 0.00 | 82 | 1010.4 |
| 20260510122105 | 57 | 192 | 2.0 | 5.0 | 0.00 | 0.00 | 0.00 | 82 | 1010.5 |
| 20260510121149 | 57 | 205 | 2.0 | 5.0 | 0.00 | 0.00 | 0.00 | 81 | 1010.5 |
| 20260510120925 | 57 | 207 | 1.0 | 4.0 | 0.00 | 0.00 | 0.00 | 81 | 1010.5 |
| 20260510115650 | 57 | 239 | 1.0 | 5.0 | 0.00 | 0.00 | 0.00 | 81 | 1010.5 |
| 20260510115146 | 58 | 216 | 1.0 | 5.0 | 0.00 | 0.00 | 0.00 | 81 | 1010.5 |
| 20260510114646 | 58 | 202 | 1.0 | 4.0 | 0.00 | 0.00 | 0.00 | 81 | 1010.4 |
| 20260510114147 | 58 | 216 | 1.0 | 4.0 | 0.00 | 0.00 | 0.00 | 81 | 1010.4 |
| 20260510113650 | 58 | 229 | 1.0 | 6.0 | 0.00 | 0.00 | 0.00 | 81 | 1010.4 |
| 20260510113141 | 58 | 204 | 2.0 | 6.0 | 0.00 | 0.00 | 0.00 | 80 | 1010.4 |
| 20260510112652 | 58 | 212 | 3.0 | 5.0 | 0.00 | 0.00 | 0.00 | 80 | 1010.3 |
| 20260510112649 | 58 | 198 | 2.0 | 6.0 | 0.00 | 0.00 | 0.00 | 80 | 1010.4 |
| 20260510111637 | 58 | 223 | 3.0 | 2.0 | 0.00 | 0.00 | 0.00 | 80 | 1010.2 |
| 20260510110159 | 59 | 210 | 4.0 | 10.0 | 0.00 | 0.00 | 0.00 | 79 | 1010.3 |
| 20260510105659 | 59 | 200 | 4.0 | 10.0 | 0.00 | 0.00 | 0.00 | 79 | 1010.3 |
| 20260510105157 | 59 | 203 | 4.0 | 8.0 | 0.00 | 0.00 | 0.00 | 78 | 1010.2 |
| 20260510104658 | 59 | 201 | 4.0 | 8.0 | 0.00 | 0.00 | 0.00 | 78 | 1010.2 |
| 20260510104155 | 59 | 217 | 4.0 | 9.0 | 0.00 | 0.00 | 0.00 | 78 | 1010.2 |
| 20260510103657 | 60 | 202 | 4.0 | 9.0 | 0.00 | 0.00 | 0.00 | 77 | 1010.2 |
| 20260510103158 | 60 | 171 | 3.0 | 7.0 | 0.00 | 0.00 | 0.00 | 77 | 1010.2 |
| 20260510102657 | 60 | 221 | 4.0 | 3.0 | 0.00 | 0.00 | 0.00 | 77 | 1010.2 |
| 20260510101404 | 60 | 179 | 3.0 | 7.0 | 0.00 | 0.00 | 0.00 | 76 | 1010.3 |
| 20260510101358 | 60 | 203 | 3.0 | 7.0 | 0.00 | 0.00 | 0.00 | 76 | 1010.3 |
| 20260510100941 | 61 | 202 | 3.0 | 2.0 | 0.00 | 0.00 | 0.00 | 76 | 1010.3 |
| 20260510094758 | 61 | 193 | 4.0 | 9.0 | 0.00 | 0.00 | 0.00 | 75 | 1010.2 |
| 20260510094259 | 62 | 184 | 5.0 | 4.0 | 0.00 | 0.00 | 0.00 | 74 | 1010.3 |
| 20260510093125 | 62 | 206 | 5.0 | 4.0 | 0.00 | 0.00 | 0.00 | 74 | 1010.2 |
| 20260510091504 | 63 | 202 | 2.0 | 5.0 | 0.00 | 0.00 | 0.00 | 72 | 1010.2 |
| 20260510091005 | 63 | 232 | 2.0 | 5.0 | 0.00 | 0.00 | 0.00 | 72 | 1010.2 |
| 20260510090501 | 63 | 190 | 2.0 | 5.0 | 0.00 | 0.00 | 0.00 | 71 | 1010.1 |
| 20260510090001 | 63 | 228 | 2.0 | 5.0 | 0.00 | 0.00 | 0.00 | 71 | 1010.1 |
| 20260510085501 | 64 | 230 | 2.0 | 4.0 | 0.00 | 0.00 | 0.00 | 71 | 1010.0 |
| 20260510085002 | 64 | 207 | 3.0 | 4.0 | 0.00 | 0.00 | 0.00 | 70 | 1010.0 |
| 20260510084502 | 64 | 204 | 3.0 | 3.0 | 0.00 | 0.00 | 0.00 | 70 | 1009.9 |
| 20260510083343 | 64 | 193 | 3.0 | 5.0 | 0.00 | 0.00 | 0.00 | 69 | 1009.9 |
| 20260510082836 | 65 | 211 | 2.0 | 4.0 | 0.00 | 0.00 | 0.00 | 69 | 1010.0 |
| 20260510082340 | 65 | 194 | 2.0 | 4.0 | 0.00 | 0.00 | 0.00 | 68 | 1010.0 |
| 20260510081837 | 65 | 207 | 2.0 | 4.0 | 0.00 | 0.00 | 0.00 | 68 | 1010.0 |
| 20260510081335 | 65 | 197 | 2.0 | 4.0 | 0.00 | 0.00 | 0.00 | 68 | 1010.0 |
| 20260510080824 | 65 | 192 | 2.0 | 4.0 | 0.00 | 0.00 | 0.00 | 68 | 1010.1 |
| 20260510080819 | 65 | 182 | 2.0 | 2.0 | 0.00 | 0.00 | 0.00 | 68 | 1010.1 |
| 20260510075446 | 66 | 200 | 3.0 | 5.0 | 0.00 | 0.00 | 0.00 | 68 | 1010.2 |
| 20260510074443 | 66 | 182 | 3.0 | 5.0 | 0.00 | 0.00 | 0.00 | 68 | 1010.3 |
| 20260510073944 | 66 | 213 | 2.0 | 5.0 | 0.00 | 0.00 | 0.00 | 68 | 1010.4 |
| 20260510073441 | 66 | 204 | 2.0 | 2.0 | 0.00 | 0.00 | 0.00 | 68 | 1010.4 |
| 20260510073059 | 66 | 167 | 3.0 | 5.0 | 0.00 | 0.00 | 0.00 | 69 | 1010.5 |
| 20260510071555 | 66 | 217 | 3.0 | 5.0 | 0.00 | 0.00 | 0.00 | 69 | 1010.4 |
| 20260510071051 | 66 | 140 | 2.0 | 1.0 | 0.00 | 0.00 | 0.00 | 69 | 1010.4 |
| 20260510070459 | 67 | 185 | 3.0 | 2.0 | 0.00 | 0.00 | 0.00 | 68 | 1010.3 |
| 20260510064146 | 67 | 155 | 3.0 | 9.0 | 0.00 | 0.00 | 0.00 | 69 | 1010.3 |
| 20260510063645 | 68 | 178 | 3.0 | 6.0 | 0.00 | 0.00 | 0.00 | 68 | 1010.3 |
| 20260510063147 | 68 | 204 | 4.0 | 4.0 | 0.00 | 0.00 | 0.00 | 68 | 1010.2 |
| 20260510062018 | 69 | 196 | 2.0 | 7.0 | 0.00 | 0.00 | 0.00 | 68 | 1010.4 |
| 20260510061524 | 69 | 213 | 3.0 | 2.0 | 0.00 | 0.00 | 0.00 | 68 | 1010.3 |
| 20260510061518 | 69 | 187 | 2.0 | 4.0 | 0.00 | 0.00 | 0.00 | 68 | 1010.3 |
| 20260510055629 | 70 | 164 | 2.0 | 5.0 | 0.00 | 0.00 | 0.00 | 68 | 1010.3 |
| 20260510055132 | 70 | 207 | 2.0 | 3.0 | 0.00 | 0.00 | 0.00 | 68 | 1010.4 |
| 20260510053849 | 71 | 177 | 3.0 | 2.0 | 0.00 | 0.00 | 0.00 | 67 | 1010.4 |
| 20260510052716 | 71 | 165 | 2.0 | 4.0 | 0.00 | 0.00 | 0.00 | 66 | 1010.5 |
| 20260510052712 | 71 | 183 | 2.0 | 4.0 | 0.00 | 0.00 | 0.00 | 67 | 1010.4 |
| 20260510051714 | 71 | 188 | 2.0 | 1.0 | 0.00 | 0.00 | 0.00 | 66 | 1010.4 |
| 20260510050346 | 73 | 205 | 3.0 | 6.0 | 0.00 | 0.00 | 0.00 | 62 | 1010.1 |
| 20260510050250 | 72 | 221 | 2.0 | 3.0 | 0.00 | 0.00 | 0.00 | 63 | 1010.4 |
| 20260510045123 | 74 | 181 | 3.0 | 3.0 | 0.00 | 0.00 | 0.00 | 62 | 1010.1 |
| 20260510043112 | 75 | 177 | 2.0 | 6.0 | 0.00 | 0.00 | 0.00 | 62 | 1010.0 |
| 20260510043107 | 74 | 194 | 2.0 | 6.0 | 0.00 | 0.00 | 0.00 | 62 | 1010.1 |
| 20260510042110 | 75 | 194 | 2.0 | 5.0 | 0.00 | 0.00 | 0.00 | 61 | 1010.0 |
| 20260510041615 | 75 | 222 | 2.0 | 1.0 | 0.00 | 0.00 | 0.00 | 60 | 1010.0 |
| 20260510040303 | 76 | 171 | 2.0 | 9.0 | 0.00 | 0.00 | 0.00 | 59 | 1009.7 |
| 20260510035806 | 76 | 254 | 2.0 | 9.0 | 0.00 | 0.00 | 0.00 | 59 | 1009.9 |
| 20260510035306 | 77 | 198 | 2.0 | 5.0 | 0.00 | 0.00 | 0.00 | 58 | 1009.9 |
| 20260510034805 | 78 | 182 | 2.0 | 4.0 | 0.00 | 0.00 | 0.00 | 58 | 1009.8 |
| 20260510034800 | 77 | 167 | 2.0 | 5.0 | 0.00 | 0.00 | 0.00 | 58 | 1009.8 |
| 20260510033756 | 79 | 165 | 2.0 | 3.0 | 0.00 | 0.00 | 0.00 | 57 | 1009.7 |
| 20260510032613 | 80 | 215 | 2.0 | 5.0 | 0.00 | 0.00 | 0.00 | 56 | 1009.7 |
| 20260510032559 | 80 | 229 | 3.0 | 5.0 | 0.00 | 0.00 | 0.00 | 56 | 1009.7 |
| 20260510031600 | 80 | 232 | 4.0 | 3.0 | 0.00 | 0.00 | 0.00 | 55 | 1009.6 |
| 20260510030134 | 81 | 225 | 4.0 | 8.0 | 0.00 | 0.00 | 0.00 | 53 | 1009.5 |
| 20260510025635 | 82 | 236 | 4.0 | 9.0 | 0.00 | 0.00 | 0.00 | 51 | 1009.5 |
| 20260510025135 | 82 | 219 | 5.0 | 10.0 | 0.00 | 0.00 | 0.00 | 50 | 1009.4 |
| 20260510024639 | 84 | 250 | 3.0 | 7.0 | 0.00 | 0.00 | 0.00 | 49 | 1009.4 |
| 20260510024634 | 83 | 242 | 4.0 | 10.0 | 0.00 | 0.00 | 0.00 | 50 | 1009.5 |
| 20260510023632 | 85 | 252 | 3.0 | 6.0 | 0.00 | 0.00 | 0.00 | 48 | 1009.3 |
| 20260510023134 | 85 | 235 | 3.0 | 3.0 | 0.00 | 0.00 | 0.00 | 46 | 1009.4 |
| 20260510021625 | 87 | 239 | 2.0 | 4.0 | 0.00 | 0.00 | 0.00 | 35 | 1009.3 |
| 20260510021120 | 87 | 221 | 1.0 | 4.0 | 0.00 | 0.00 | 0.00 | 36 | 1009.4 |
| 20260510020620 | 87 | 210 | 0.0 | 0.0 | 0.00 | 0.00 | 0.00 | 40 | 1009.4 |
| 20260510020118 | 87 | 177 | 0.0 | 0.0 | 0.00 | 0.00 | 0.00 | 42 | 1009.4 |
| 20260510015611 | 87 | 173 | 0.0 | 0.0 | 0.00 | 0.00 | 0.00 | 42 | 1009.5 |
| 20260510015111 | 87 | 173 | 0.0 | 0.0 | 0.00 | 0.00 | 0.00 | 40 | 1009.5 |
| 20260510015105 | 87 | 179 | 0.0 | 0.0 | 0.00 | 0.00 | 0.00 | 41 | 1009.5 |
| 20260510014103 | 87 | 166 | 0.0 | 0.0 | 0.00 | 0.00 | 0.00 | 43 | 1009.5 |
| 20260510013548 | 87 | 166 | 0.0 | 0.0 | 0.00 | 0.00 | 0.00 | 43 | 1009.5 |
| 20260510013045 | 87 | 167 | 0.0 | 0.0 | 0.00 | 0.00 | 0.00 | 43 | 1009.6 |
| 20260510012545 | 87 | 167 | 0.0 | 0.0 | 0.00 | 0.00 | 0.00 | 43 | 1009.6 |
| 20260510012030 | 87 | 167 | 0.0 | 0.0 | 0.00 | 0.00 | 0.00 | 41 | 1009.6 |
| 20260510012024 | 87 | 166 | 0.0 | 0.0 | 0.00 | 0.00 | 0.00 | 42 | 1009.6 |
| 20260510011020 | 87 | 167 | 0.0 | 0.0 | 0.00 | 0.00 | 0.00 | 42 | 1009.6 |
| 20260510010520 | 87 | 169 | 0.0 | 1.0 | 0.00 | 0.00 | 0.00 | 43 | 1009.6 |
| 20260510005953 | 88 | 169 | 0.0 | 2.0 | 0.00 | 0.00 | 0.00 | 42 | 1009.6 |
| 20260510005947 | 88 | 173 | 0.0 | 2.0 | 0.00 | 0.00 | 0.00 | 43 | 1009.6 |
| 20260510004945 | 88 | 156 | 0.0 | 2.0 | 0.00 | 0.00 | 0.00 | 43 | 1009.6 |
| 20260510004938 | 89 | 153 | 0.0 | 2.0 | 0.00 | 0.00 | 0.00 | 43 | 1009.7 |
| 20260510004644 | 88 | 159 | 0.0 | 2.0 | 0.00 | 0.00 | 0.00 | 43 | 1009.7 |
| 20260510003929 | 88 | 142 | 0.0 | 2.0 | 0.00 | 0.00 | 0.00 | 43 | 1009.7 |
| 20260510002910 | 89 | 207 | 0.0 | 2.0 | 0.00 | 0.00 | 0.00 | 43 | 1009.7 |
| 20260510002407 | 89 | 167 | 0.0 | 0.0 | 0.00 | 0.00 | 0.00 | 42 | 1009.8 |
| 20260510001900 | 89 | 177 | 0.0 | 0.0 | 0.00 | 0.00 | 0.00 | 39 | 1009.9 |
| 20260510001406 | 89 | 185 | 0.0 | 0.0 | 0.00 | 0.00 | 0.00 | 37 | 1010.0 |
| 20260509235830 | 90 | 157 | 0.0 | 0.0 | 0.00 | 0.00 | 0.00 | 38 | 1010.1 |
| 20260509235326 | 90 | 163 | 0.0 | 0.0 | 0.00 | 0.00 | 0.00 | 38 | 1010.1 |
| 20260509234242 | 90 | 168 | 0.0 | 2.0 | 0.00 | 0.00 | 0.00 | 38 | 1010.2 |
| 20260509233240 | 89 | 239 | 1.0 | 4.0 | 0.00 | 0.00 | 0.00 | 38 | 1010.2 |
| 20260509232741 | 90 | 40 | 1.0 | 4.0 | 0.00 | 0.00 | 0.00 | 38 | 1010.3 |
| 20260509232221 | 90 | 237 | 1.0 | 5.0 | 0.00 | 0.00 | 0.00 | 38 | 1010.3 |
| 20260509231718 | 90 | 253 | 1.0 | 6.0 | 0.00 | 0.00 | 0.00 | 39 | 1010.4 |
| 20260509231219 | 89 | 38 | 0.0 | 6.0 | 0.00 | 0.00 | 0.00 | 39 | 1010.5 |
| 20260509230719 | 89 | 0 | 1.0 | 3.0 | 0.00 | 0.00 | 0.00 | 40 | 1010.5 |
| 20260509230210 | 89 | 40 | 1.0 | 1.0 | 0.00 | 0.00 | 0.00 | 40 | 1010.5 |
| 20260509224720 | 89 | 229 | 1.0 | 5.0 | 0.00 | 0.00 | 0.00 | 41 | 1010.8 |
| 20260509224221 | 89 | 234 | 1.0 | 5.0 | 0.00 | 0.00 | 0.00 | 42 | 1010.8 |
| 20260509223723 | 89 | 257 | 1.0 | 0.0 | 0.00 | 0.00 | 0.00 | 42 | 1010.8 |
| 20260509222456 | 89 | 257 | 1.0 | 3.0 | 0.00 | 0.00 | 0.00 | 42 | 1011.2 |
| 20260509222452 | 89 | 205 | 1.0 | 7.0 | 0.00 | 0.00 | 0.00 | 41 | 1011.1 |
| 20260509221453 | 89 | 275 | 1.0 | 3.0 | 0.00 | 0.00 | 0.00 | 42 | 1011.2 |
| 20260509220953 | 88 | 240 | 1.0 | 0.0 | 0.00 | 0.00 | 0.00 | 42 | 1011.2 |
| 20260509215830 | 88 | 219 | 2.0 | 8.0 | 0.00 | 0.00 | 0.00 | 41 | 1011.0 |
| 20260509215329 | 88 | 244 | 2.0 | 8.0 | 0.00 | 0.00 | 0.00 | 42 | 1011.2 |
| 20260509214827 | 89 | 61 | 1.0 | 5.0 | 0.00 | 0.00 | 0.00 | 41 | 1011.3 |
| 20260509214324 | 88 | 251 | 1.0 | 9.0 | 0.00 | 0.00 | 0.00 | 42 | 1011.3 |
| 20260509213820 | 89 | 196 | 2.0 | 9.0 | 0.00 | 0.00 | 0.00 | 42 | 1011.5 |
| 20260509213320 | 88 | 219 | 1.0 | 5.0 | 0.00 | 0.00 | 0.00 | 43 | 1011.6 |
| 20260509213315 | 88 | 212 | 1.0 | 6.0 | 0.00 | 0.00 | 0.00 | 42 | 1011.5 |
| 20260509212815 | 88 | 250 | 1.0 | 6.0 | 0.00 | 0.00 | 0.00 | 42 | 1011.6 |
| 20260509212547 | 88 | 163 | 1.0 | 5.0 | 0.00 | 0.00 | 0.00 | 42 | 1011.6 |
| 20260509211254 | 88 | 168 | 2.0 | 7.0 | 0.00 | 0.00 | 0.00 | 43 | 1011.7 |
| 20260509210753 | 87 | 204 | 1.0 | 7.0 | 0.00 | 0.00 | 0.00 | 45 | 1011.7 |
| 20260509210254 | 86 | 261 | 1.0 | 5.0 | 0.00 | 0.00 | 0.00 | 47 | 1011.6 |
| 20260509205757 | 86 | 209 | 2.0 | 5.0 | 0.00 | 0.00 | 0.00 | 45 | 1011.8 |
| 20260509205241 | 87 | 212 | 2.0 | 5.0 | 0.00 | 0.00 | 0.00 | 46 | 1011.8 |
| 20260509204736 | 86 | 246 | 3.0 | 7.0 | 0.00 | 0.00 | 0.00 | 45 | 1011.7 |
| 20260509204238 | 86 | 244 | 2.0 | 7.0 | 0.00 | 0.00 | 0.00 | 45 | 1011.7 |
| 20260509203729 | 86 | 234 | 1.0 | 3.0 | 0.00 | 0.00 | 0.00 | 45 | 1011.9 |
| 20260509202314 | 85 | 206 | 2.0 | 6.0 | 0.00 | 0.00 | 0.00 | 46 | 1011.9 |
| 20260509201816 | 85 | 177 | 2.0 | 9.0 | 0.00 | 0.00 | 0.00 | 47 | 1011.9 |
| 20260509201302 | 85 | 227 | 2.0 | 9.0 | 0.00 | 0.00 | 0.00 | 47 | 1011.9 |
| 20260509200806 | 84 | 205 | 1.0 | 5.0 | 0.00 | 0.00 | 0.00 | 48 | 1012.0 |
| 20260509200254 | 84 | 169 | 1.0 | 5.0 | 0.00 | 0.00 | 0.00 | 48 | 1012.1 |
| 20260509195754 | 85 | 166 | 1.0 | 5.0 | 0.00 | 0.00 | 0.00 | 46 | 1012.1 |
| 20260509195255 | 84 | 80 | 1.0 | 5.0 | 0.00 | 0.00 | 0.00 | 47 | 1012.2 |
| 20260509194754 | 85 | 196 | 1.0 | 5.0 | 0.00 | 0.00 | 0.00 | 47 | 1012.2 |
| 20260509194302 | 83 | 53 | 1.0 | 5.0 | 0.00 | 0.00 | 0.00 | 51 | 1012.2 |
| 20260509193749 | 82 | 28 | 2.0 | 6.0 | 0.00 | 0.00 | 0.00 | 50 | 1012.2 |
| 20260509193236 | 82 | 240 | 2.0 | 6.0 | 0.00 | 0.00 | 0.00 | 50 | 1012.3 |
| 20260509192733 | 82 | 10 | 1.0 | 2.0 | 0.00 | 0.00 | 0.00 | 50 | 1012.3 |
| 20260509191448 | 82 | 244 | 2.0 | 6.0 | 0.00 | 0.00 | 0.00 | 50 | 1012.6 |
| 20260509190952 | 82 | 242 | 2.0 | 5.0 | 0.00 | 0.00 | 0.00 | 50 | 1012.7 |
| 20260509190948 | 82 | 330 | 2.0 | 6.0 | 0.00 | 0.00 | 0.00 | 50 | 1012.7 |
| 20260509185949 | 82 | 223 | 1.0 | 3.0 | 0.00 | 0.00 | 0.00 | 50 | 1012.8 |
| 20260509184545 | 81 | 61 | 2.0 | 1.0 | 0.00 | 0.00 | 0.00 | 51 | 1013.0 |
| 20260509182954 | 81 | 125 | 1.0 | 5.0 | 0.00 | 0.00 | 0.00 | 51 | 1013.0 |
| 20260509182445 | 80 | 198 | 2.0 | 0.0 | 0.00 | 0.00 | 0.00 | 51 | 1013.1 |
| 20260509181142 | 80 | 209 | 1.0 | 6.0 | 0.00 | 0.00 | 0.00 | 51 | 1013.3 |
| 20260509180644 | 79 | 244 | 1.0 | 6.0 | 0.00 | 0.00 | 0.00 | 52 | 1013.3 |
| 20260509180144 | 79 | 238 | 1.0 | 5.0 | 0.00 | 0.00 | 0.00 | 52 | 1013.2 |
| 20260509175640 | 78 | 223 | 1.0 | 3.0 | 0.00 | 0.00 | 0.00 | 53 | 1013.3 |
| 20260509175127 | 78 | 184 | 1.0 | 3.0 | 0.00 | 0.00 | 0.00 | 53 | 1013.1 |
| 20260509174621 | 78 | 132 | 1.0 | 0.0 | 0.00 | 0.00 | 0.00 | 52 | 1013.1 |
| 20260509173425 | 76 | 248 | 3.0 | 5.0 | 0.00 | 0.00 | 0.00 | 55 | 1013.1 |
| 20260509172922 | 77 | 227 | 2.0 | 6.0 | 0.00 | 0.00 | 0.00 | 52 | 1013.1 |
| 20260509172423 | 76 | 221 | 1.0 | 6.0 | 0.00 | 0.00 | 0.00 | 55 | 1013.0 |
| 20260509171920 | 76 | 185 | 2.0 | 5.0 | 0.00 | 0.00 | 0.00 | 55 | 1013.1 |
| 20260509171408 | 76 | 222 | 3.0 | 5.0 | 0.00 | 0.00 | 0.00 | 55 | 1013.1 |
| 20260509170907 | 75 | 232 | 2.0 | 5.0 | 0.00 | 0.00 | 0.00 | 56 | 1013.1 |